TimeMDT,TemperatureF,Dew PointF,Humidity,Sea Level PressureIn,VisibilityMPH,Wind Direction,Wind SpeedMPH,Gust SpeedMPH,PrecipitationIn,Events,Conditions,WindDirDegrees,DateUTC
12:53 AM,37.9,30.0,73,30.06,10.0,North,6.9,-,N/A,,Clear,360,2014-05-02 06:53:00
1:53 AM,36.0,28.9,76,30.04,10.0,North,5.8,-,N/A,,Clear,350,2014-05-02 07:53:00
2:53 AM,35.1,28.9,78,30.03,10.0,Calm,Calm,-,N/A,,Clear,0,2014-05-02 08:53:00
3:53 AM,34.0,28.0,79,30.02,10.0,North,4.6,-,N/A,,Partly Cloudy,350,2014-05-02 09:53:00
4:53 AM,37.0,28.9,73,30.00,10.0,NNW,5.8,-,N/A,,Clear,330,2014-05-02 10:53:00
5:53 AM,35.1,28.0,76,30.00,10.0,NNW,4.6,-,N/A,,Clear,330,2014-05-02 11:53:00
6:53 AM,37.9,30.9,76,29.99,10.0,NW,6.9,-,N/A,,Clear,320,2014-05-02 12:53:00
7:53 AM,45.0,33.1,63,29.96,10.0,NW,6.9,-,N/A,,Clear,320,2014-05-02 13:53:00
8:53 AM,54.0,34.0,47,29.94,10.0,NW,11.5,-,N/A,,Clear,310,2014-05-02 14:53:00
9:53 AM,64.0,33.1,31,29.90,10.0,WNW,18.4,25.3,N/A,,Clear,290,2014-05-02 15:53:00
10:53 AM,66.9,32.0,27,29.89,10.0,West,20.7,-,N/A,,Clear,280,2014-05-02 16:53:00
12:53 PM,72.0,33.1,24,29.85,10.0,West,21.9,31.1,N/A,,Clear,280,2014-05-02 18:53:00
1:53 PM,73.9,32.0,21,29.83,10.0,West,20.7,28.8,N/A,,Scattered Clouds,280,2014-05-02 19:53:00
2:53 PM,73.9,30.9,21,29.82,10.0,WNW,19.6,28.8,N/A,,Mostly Cloudy,290,2014-05-02 20:53:00
3:53 PM,73.9,30.0,20,29.81,10.0,WNW,21.9,-,N/A,,Mostly Cloudy,300,2014-05-02 21:53:00
4:53 PM,75.0,28.9,18,29.79,10.0,NW,17.3,32.2,N/A,,Mostly Cloudy,320,2014-05-02 22:53:00
5:53 PM,72.0,28.9,20,29.81,10.0,NW,17.3,25.3,N/A,,Clear,320,2014-05-02 23:53:00
6:53 PM,68.0,28.0,22,29.81,10.0,NNW,12.7,-,N/A,,Clear,330,2014-05-03 00:53:00
7:21 PM,66.0,39.0,37,29.90,10.0,NE,13.8,-,N/A,,Clear,50,2014-05-03 01:21:00
7:53 PM,61.0,39.9,46,29.83,10.0,NE,11.5,-,N/A,,Clear,40,2014-05-03 01:53:00
8:53 PM,55.9,39.9,55,29.84,10.0,ENE,13.8,-,N/A,,Clear,60,2014-05-03 02:53:00
9:53 PM,50.0,41.0,71,29.88,10.0,SSE,11.5,-,N/A,,Clear,160,2014-05-03 03:53:00
10:53 PM,45.0,41.0,86,29.89,10.0,East,8.1,-,N/A,,Clear,100,2014-05-03 04:53:00
11:53 PM,45.0,41.0,86,29.88,10.0,East,6.9,-,N/A,,Scattered Clouds,100,2014-05-03 05:53:00